This is the latest recevied weather packets stored in our database for station/object N2OCK. If no packets are shown the sender has not sent any weather packets the latest 10 day(s).
| Time | Temp. | Humidity | Pressure | Rain* | Wind** | Luminosity | Snow |
|---|---|---|---|---|---|---|---|
| 1778137807 | 10.56° C | 97% | 1008.6 hPa | 9.65 mm | - | 0 W/m² | - |
| 1778137504 | 11.11° C | 97% | 1008.7 hPa | 7.87 mm | - | 0 W/m² | - |
| 1778137201 | 11.11° C | 97% | 1009.3 hPa | 6.1 mm | - | 0 W/m² | - |
| 1778136897 | 11.11° C | 97% | 1008.6 hPa | 4.32 mm | - | 0 W/m² | - |
| 1778136595 | 11.11° C | 96% | 1008.2 hPa | 3.05 mm | - | 0 W/m² | - |
| 1778136293 | 11.67° C | 96% | 1008.4 hPa | 3.05 mm | - | 0 W/m² | - |
| 1778135990 | 11.67° C | 96% | 1008.4 hPa | 4.83 mm | - | 0 W/m² | - |
| 1778135687 | 12.22° C | 96% | 1007.5 hPa | 3.05 mm | - | 0 W/m² | - |
| 1778135384 | 12.22° C | 96% | 1008.2 hPa | 3.05 mm | - | 0 W/m² | - |
| 1778135081 | 12.22° C | 95% | 1008.6 hPa | 4.83 mm | - | 0 W/m² | - |
| 1778134778 | 12.78° C | 95% | 1008.1 hPa | 3.05 mm | - | 0 W/m² | - |
| 1778134477 | 12.78° C | 94% | 1008.4 hPa | 1.27 mm | - | 0 W/m² | - |
| 1778134175 | 12.78° C | 94% | 1008.3 hPa | 0 mm | - | 0 W/m² | - |
| 1778133871 | 12.78° C | 93% | 1008.2 hPa | 0 mm | - | 0 W/m² | - |
| 1778133568 | 12.78° C | 93% | 1007.7 hPa | 0 mm | - | 0 W/m² | - |
| 1778133263 | 13.33° C | 93% | 1007.7 hPa | 0 mm | - | 0 W/m² | - |
| 1778132960 | 13.33° C | 93% | 1007.8 hPa | 0 mm | - | 0 W/m² | - |
| 1778132656 | 13.33° C | 93% | 1007.9 hPa | 0 mm | - | 0 W/m² | - |
| 1778132354 | 13.33° C | 93% | 1007.6 hPa | 0 mm | - | 0 W/m² | - |
| 1778132051 | 13.33° C | 93% | 1007.9 hPa | 0 mm | - | 0 W/m² | - |
| 1778131750 | 13.33° C | 93% | 1007.9 hPa | 0 mm | - | 0 W/m² | - |
| 1778131447 | 13.33° C | 93% | 1008 hPa | 0 mm | - | 0 W/m² | - |
| 1778131144 | 13.33° C | 94% | 1008.1 hPa | 0 mm | - | 0 W/m² | - |
| 1778130842 | 13.33° C | 93% | 1007.9 hPa | 0 mm | - | 0 W/m² | - |
| 1778130538 | 13.33° C | 94% | 1007.8 hPa | 0 mm | - | 0 W/m² | - |
* Rain latest hour (hover to see other rain measurements)
** Current wind speed in m/s (hover to see current wind gust speed)